Lake Charles Regional, LA

4:52 AM CST on February 23, 2018 (GMT -0600)
Lake Charles Regional

Weather History for KLCH - October, 2014

Change the Weather History Date:

Tuesday, October 28, 2014

  Actual Average Record
Temperature  
Mean Temperature 74 °F 67 °F  
Max Temperature 84 °F 78 °F 92 °F (1927)
Min Temperature 63 °F 56 °F 35 °F (1898)
Degree Days  
Heating Degree Days 0 2  
Month to date heating degree days 3 26  
Since 1 July heating degree days 3 27  
Cooling Degree Days 9 4  
Month to date cooling degree days 203 182  
Year to date cooling degree days 2662 2722  
Growing Degree Days 24 (Base 50)    
Moisture  
Dew Point 66 °F    
Average Humidity 76    
Maximum Humidity 100    
Minimum Humidity 51    
Precipitation  
Precipitation 0.01 in 0.17 in 3.24 in (1985)
Month to date precipitation 2.51 4.39  
Year to date precipitation 59.55 47.87  
Snow  
Snow 0.00 in 0.00 in 0.00 in ()
Month to date snowfall 0.0 0.0  
Since 1 July snowfall 0.0 0.0  
Since 1 September snowfall 0.0 0.0  
Snow Depth 0.00 in    
Sea Level Pressure  
Sea Level Pressure 30.01 in    
Wind  
Wind Speed 4 mph (SE)    
Max Wind Speed 14 mph    
Max Gust Speed 19 mph    
Visibility 4 miles    
Events Fog , Rain    
T = Trace of Precipitation, MM = Missing Value Source: NWS Daily Summary

Daily Weather History Graph

Daily Weather History Graph

Search for Another Location

Airport or City:

Trip Planner

Search our weather history database for the weather conditions in past years. The results will help you decide how hot, cold, wet, or windy it might be!

Date:

Astronomy

Oct. 28, 2014 Rise Set
Actual Time 7:23 AM CDT 6:28 PM CDT
Civil Twilight 6:59 AM CDT 6:53 PM CDT
Nautical Twilight 6:31 AM CDT 7:21 PM CDT
Astronomical Twilight 6:03 AM CDT 7:49 PM CDT
Moon 11:46 AM CDT (10/28) 10:42 PM CDT (10/28)
Length of Visible Light 11h 54m
Length of Day
11h 05m
Waxing Crescent, 24% of the Moon is Illuminated
Oct 28
Waxing Crescent
Oct 30
First Quarter
Nov 6
Full
Nov 14
Last Quarter
Nov 22
New

Hourly Weather History & Observations

Time (CDT) Temp. Heat Index Dew Point Humidity Pressure Visibility Wind Dir Wind Speed Gust Speed Precip Events Conditions
12:53 AM 66.0 °F - 64.9 °F 96% 30.00 in 2.5 mi SE 3.5 mph - N/A   Clear
1:11 AM 66.9 °F - 66.0 °F 97% 29.98 in 3.0 mi ESE 3.5 mph - N/A   Clear
1:17 AM 66.0 °F - 64.9 °F 96% 29.98 in 1.8 mi Calm Calm - N/A   Clear
1:28 AM 66.0 °F - 64.9 °F 96% 29.98 in 3.0 mi ESE 3.5 mph - N/A   Clear
1:50 AM 64.4 °F - 64.4 °F 100% 29.98 in 1.5 mi Calm Calm - N/A   Clear
1:53 AM 64.9 °F - 64.0 °F 97% 30.01 in 1.2 mi Calm Calm - N/A   Clear
2:01 AM 64.9 °F - 64.0 °F 97% 29.99 in 0.5 mi Calm Calm - N/A Fog Fog
2:16 AM 64.0 °F - 64.0 °F 100% 29.98 in 1.2 mi ESE 3.5 mph - N/A   Partly Cloudy
2:19 AM 64.0 °F - 64.0 °F 100% 29.98 in 3.0 mi ESE 3.5 mph - N/A   Partly Cloudy
2:37 AM 64.9 °F - 64.0 °F 97% 29.97 in 2.5 mi SE 4.6 mph - N/A   Clear
2:46 AM 64.9 °F - 64.9 °F 100% 29.97 in 4.0 mi ESE 3.5 mph - N/A   Clear
2:53 AM 64.9 °F - 64.9 °F 100% 29.99 in 4.0 mi East 3.5 mph - N/A   Clear
3:03 AM 64.9 °F - 64.0 °F 97% 29.97 in 1.8 mi ESE 3.5 mph - N/A   Clear
3:13 AM 64.9 °F - 64.0 °F 97% 29.96 in 3.0 mi ESE 3.5 mph - N/A   Clear
3:28 AM 64.4 °F - 64.4 °F 100% 29.97 in 2.0 mi Calm Calm - N/A   Clear
3:40 AM 66.0 °F - 64.9 °F 96% 29.97 in 1.5 mi ESE 5.8 mph - N/A   Clear
3:45 AM 64.9 °F - 64.0 °F 97% 29.96 in 3.0 mi ESE 5.8 mph - N/A   Clear
3:53 AM 66.0 °F - 64.9 °F 96% 29.99 in 4.0 mi SE 4.6 mph - N/A   Clear
4:15 AM 64.0 °F - 64.0 °F 100% 29.96 in 1.5 mi Calm Calm - N/A   Clear
4:28 AM 64.0 °F - 64.0 °F 100% 29.97 in 3.0 mi Calm Calm - N/A   Clear
4:51 AM 64.4 °F - 62.6 °F 94% 29.96 in 1.8 mi Calm Calm - N/A   Partly Cloudy
4:53 AM 64.0 °F - 62.1 °F 93% 29.99 in 1.5 mi Calm Calm - N/A   Partly Cloudy
5:07 AM 64.0 °F - 64.0 °F 100% 29.97 in 0.5 mi Calm Calm - N/A Fog Fog
5:22 AM 64.9 °F - 64.0 °F 97% 29.97 in 1.0 mi ESE 3.5 mph - N/A   Mostly Cloudy
5:27 AM 64.0 °F - 64.0 °F 100% 29.97 in 3.0 mi Calm Calm - N/A   Scattered Clouds
5:53 AM 63.0 °F - 63.0 °F 100% 29.99 in 4.0 mi ESE 3.5 mph - N/A   Partly Cloudy
6:06 AM 63.0 °F - 62.1 °F 97% 29.97 in 1.5 mi SE 3.5 mph - N/A   Partly Cloudy
6:14 AM 63.0 °F - 62.1 °F 97% 29.97 in 1.0 mi SE 3.5 mph - N/A   Partly Cloudy
6:24 AM 64.0 °F - 64.0 °F 100% 29.98 in 0.8 mi SE 3.5 mph - N/A   Mist
6:31 AM 64.0 °F - 64.0 °F 100% 29.98 in 1.2 mi Calm Calm - N/A   Scattered Clouds
6:35 AM 64.0 °F - 63.0 °F 96% 29.99 in 3.0 mi Calm Calm - N/A   Scattered Clouds
6:44 AM 64.0 °F - 63.0 °F 96% 29.99 in 1.8 mi Calm Calm - N/A   Mostly Cloudy
6:53 AM 64.0 °F - 63.0 °F 96% 30.01 in 2.5 mi Calm Calm - N/A   Mostly Cloudy
7:00 AM 64.0 °F - 64.0 °F 100% 29.99 in 4.0 mi Calm Calm - N/A   Mostly Cloudy
7:53 AM 68.0 °F - 66.9 °F 96% 30.04 in 7.0 mi Calm Calm - N/A   Overcast
8:53 AM 70.0 °F - 69.1 °F 97% 30.06 in 9.0 mi Calm Calm - N/A   Mostly Cloudy
9:53 AM 72.0 °F - 70.0 °F 93% 30.08 in 10.0 mi East 3.5 mph - N/A   Overcast
10:53 AM 75.0 °F - 71.1 °F 87% 30.09 in 10.0 mi Calm Calm - N/A   Mostly Cloudy
11:53 AM 79.0 °F - 71.1 °F 77% 30.09 in 10.0 mi South 6.9 mph - N/A   Mostly Cloudy
12:53 PM 75.9 °F - 70.0 °F 82% 30.08 in 6.0 mi South 5.8 mph - 0.01 in Rain Rain
1:53 PM 80.1 °F 82.9 °F 69.1 °F 69% 30.04 in 10.0 mi SE 6.9 mph - 0.00 in   Mostly Cloudy
2:53 PM 82.0 °F 84.1 °F 66.0 °F 58% 30.03 in 10.0 mi South 9.2 mph - N/A   Overcast
3:53 PM 82.9 °F 83.7 °F 62.1 °F 49% 30.03 in 10.0 mi SW 10.4 mph - N/A   Partly Cloudy
4:53 PM 80.1 °F 82.3 °F 66.9 °F 64% 30.03 in 10.0 mi South 6.9 mph - N/A   Partly Cloudy
5:53 PM 78.1 °F - 68.0 °F 71% 30.03 in 10.0 mi South 6.9 mph - N/A   Clear
6:53 PM 73.9 °F - 69.1 °F 85% 30.05 in 10.0 mi South 4.6 mph - N/A   Clear
7:53 PM 72.0 °F - 69.1 °F 91% 30.06 in 10.0 mi South 4.6 mph - N/A   Clear
8:53 PM 72.0 °F - 70.0 °F 93% 30.07 in 10.0 mi South 4.6 mph - N/A   Clear
9:53 PM 71.1 °F - 70.0 °F 96% 30.08 in 7.0 mi South 3.5 mph - N/A   Clear
10:53 PM 70.0 °F - 69.1 °F 97% 30.08 in 6.0 mi Calm Calm - N/A   Clear
11:44 PM 69.8 °F - 68.0 °F 94% 30.06 in 1.5 mi Calm Calm - N/A   Clear
11:50 PM 66.2 °F - 66.2 °F 100% 30.06 in 0.5 mi Calm Calm - N/A Fog Fog
11:53 PM 66.0 °F - 66.0 °F 100% 30.09 in 0.5 mi Calm Calm - N/A Fog Fog